Talnakh (Russia)  www.meteorete.it

situazione meteo Attuale :09:19:58
Temperatura : 22.4
Umidita :61.1 %
Pressione :1002.2 hPa
Vel vento :6.5 Km
Direz. :SE
Precip.(mm.):0.3
   

Condizioni Meteo per: Talnakh, Russia

aggiornamento precedente: 24.06.2017 19:35
prossimo aggiornamento: 25.06.2017 08:00
Latitude: 69.49° N
Longitude: 88.4° E
Altitude: 174 m

hPa
mm °C
    Temperatura Precipitazioni Pressione vento Umidità Nuvoloso Nebbia
Keskiyön aurinko OGGI
11:00 0.3 mm 1002.2 hPa 6.5 m/s 61% 48%
13:00   1001.4 hPa 6.0 m/s 55% 99%
15:00   1000.3 hPa 6.8 m/s 51% 94%
17:00 0.2 mm 999.2 hPa 6.6 m/s 49% 37%
19:00   998.5 hPa 6.3 m/s 56% 85%
21:00   998.0 hPa 5.8 m/s 61% 72%
23:00   996.9 hPa 5.6 m/s 70% 98%
Keskiyön aurinko DOMANI
01:00   996.1 hPa 5.2 m/s 73% 64%
03:00 0.8 mm 995.8 hPa 4.9 m/s 79% 100%
05:00 2.0 mm 996.8 hPa 6.4 m/s 93% 88%
07:00 1.3 mm 1000.5 hPa 7.0 m/s 93% 100%
09:00   1003.9 hPa 6.5 m/s 80% 51%
11:00   1006.0 hPa 5.2 m/s 69% 31%
13:00   1006.7 hPa 3.2 m/s 62% 72%
15:00   1007.4 hPa 2.2 m/s 59% 82%
17:00   1007.8 hPa 2.1 m/s 58% 52%
19:00   1008.0 hPa 2.3 m/s 57% 77%
21:00   1008.1 hPa 0.4 m/s 60% 48%
23:00   1007.9 hPa 2.6 m/s 74% 13%
Keskiyön aurinko Martedi 27.06.2017
01:00   1008.0 hPa 3.4 m/s 79% 35%
03:00   1008.0 hPa 3.1 m/s 78% 72%
05:00   1007.9 hPa 3.1 m/s 75% 87%
07:00   1007.8 hPa 1.4 m/s 67% 85%
09:00   1007.9 hPa 1.9 m/s 65% 99%
11:00   1008.1 hPa 2.7 m/s 70% 99%
13:00   1007.9 hPa 2.4 m/s 73% 73%
15:00   1007.9 hPa 4.2 m/s 71% 34%
17:00   1008.2 hPa 5.1 m/s 68% 22%
19:00   1008.3 hPa 4.8 m/s 66% 0%
21:00   1007.9 hPa 3.6 m/s 69% 100%
23:00   1007.5 hPa 2.9 m/s 75% 100%
Keskiyön aurinko Mercoledi 28.06.2017
01:00   1006.6 hPa 1.2 m/s 78% 98%
13:00   999.1 hPa 5.9 m/s 60% 83%
19:00 7.4 mm 995.4 hPa 3.9 m/s 86% 100%
Keskiyön aurinko Giovedi 29.06.2017
01:00 12.4 mm 994.6 hPa 4.2 m/s 92% 76%
07:00 2.8 mm 994.3 hPa 5.6 m/s 86% 91%
13:00 9.6 mm 994.9 hPa 7.1 m/s 72% 97%
19:00 16.7 mm 997.1 hPa 4.4 m/s 80% 68%
Keskiyön aurinko Venerdi 30.06.2017
01:00 6.6 mm 998.0 hPa 3.9 m/s 80% 38%
07:00 1.8 mm 999.1 hPa 2.2 m/s 87% 95%
13:00 7.3 mm 998.5 hPa 3.9 m/s 76% 93%
19:00   999.6 hPa 5.4 m/s 76% 88%
Keskiyön aurinko Sabato 01.07.2017
01:00   1000.8 hPa 4.4 m/s 85% 64%
07:00   1002.9 hPa 6.1 m/s 80% 98%
13:00   1006.2 hPa 6.1 m/s 75% 100%
19:00   1007.6 hPa 4.8 m/s 70% 89%
Keskiyön aurinko Domenica 02.07.2017
01:00   1007.3 hPa 4.1 m/s 78% 27%
07:00   1005.4 hPa 4.6 m/s 71% 30%
13:00   1002.2 hPa 5.3 m/s 58% 98%
19:00   1002.4 hPa 7.7 m/s 67% 1%
Keskiyön aurinko Lunedi 03.07.2017
01:00   1004.1 hPa 7.9 m/s 75% 64%
07:00   1007.2 hPa 7.1 m/s 77% 87%
13:00   1010.1 hPa 6.6 m/s 58% 41%
19:00   1011.9 hPa 4.5 m/s 56% 71%
Keskiyön aurinko Martedi 04.07.2017
01:00   1012.4 hPa 1.5 m/s 78% 4%
07:00   1011.2 hPa 4.0 m/s 63% 98%
13:00   1007.9 hPa 1.3 m/s 48% 100%
19:00   1005.1 hPa 1.4 m/s 44% 86%